Oscoda, MI

9:18 AM EST on November 18, 2019 (GMT -0500)
Oscoda-Wurtsmith

Weather History for KOSC - August, 2019

Change the Weather History Date:

Sunday, August 18, 2019

  Actual Average Record
Temperature  
Mean Temperature 70 °F -  
Max Temperature 82 °F 74 °F 89 °F (2008)
Min Temperature 59 °F 55 °F 42 °F (2007)
Cooling Degree Days 6    
Growing Degree Days 20 (Base 50)    
Moisture  
Dew Point 66 °F    
Average Humidity 85    
Maximum Humidity 100    
Minimum Humidity 64    
Precipitation  
Precipitation 0.04 in - - ()
Sea Level Pressure  
Sea Level Pressure 29.83 in    
Wind  
Wind Speed 4 mph (SSW)    
Max Wind Speed 16 mph    
Max Gust Speed 23 mph    
Visibility 8 miles    
Events Fog , Rain    
Averages and records for this station are not official NWS values.
T = Trace of Precipitation, MM = Missing Value Source: NWS Daily Summary

Daily Weather History Graph

Daily Weather History Graph

Search for Another Location

Airport or City:

Astronomy

Aug. 18, 2019 Rise Set
Actual Time 6:39 AM EDT 8:34 PM EDT
Civil Twilight 6:08 AM EDT 9:05 PM EDT
Nautical Twilight 5:30 AM EDT 9:43 PM EDT
Astronomical Twilight 4:48 AM EDT 10:25 PM EDT
Moon 10:22 PM EDT 9:28 AM EDT
Length of Visible Light 14h 57m
Length of Day
13h 54m
Waning Gibbous, 91% of the Moon is Illuminated
Aug 18
Waning Gibbous
Aug 23
Last Quarter
Aug 30
New
Sep 5
First Quarter
Sep 14
Full

Hourly Weather History & Observations

Time (EDT) Temp. Heat Index Dew Point Humidity Pressure Visibility Wind Dir Wind Speed Gust Speed Precip Events Conditions
12:15 AM 65.3 °F - 65.3 °F 100% 29.91 in 10.0 mi Calm Calm - N/A   Clear
12:16 AM 65.1 °F - 65.1 °F 100% 29.91 in 10.0 mi Calm Calm - N/A   Clear
12:35 AM 64.6 °F - 64.6 °F 100% 29.92 in 7.0 mi Calm Calm - N/A   Clear
12:59 AM 63.9 °F - 63.9 °F 100% 29.92 in 10.0 mi Calm Calm - N/A   Clear
1:17 AM 63.0 °F - 63.0 °F 100% 29.92 in 10.0 mi Calm Calm - N/A   Clear
1:35 AM 63.3 °F - 63.3 °F 100% 29.92 in 10.0 mi Calm Calm - N/A   Clear
1:55 AM 62.6 °F - 62.6 °F 100% 29.91 in 10.0 mi Calm Calm - N/A   Clear
2:15 AM 62.6 °F - 62.6 °F 100% 29.90 in 7.0 mi Calm Calm - N/A   Scattered Clouds
2:19 AM 62.8 °F - 62.8 °F 100% 29.90 in 7.0 mi Calm Calm - N/A   Scattered Clouds
2:38 AM 63.0 °F - 63.0 °F 100% 29.90 in 2.0 mi Calm Calm - N/A   Overcast
2:56 AM 63.0 °F - 63.0 °F 100% 29.90 in 0.2 mi Calm Calm - N/A Fog Fog
3:15 AM 62.8 °F - 62.8 °F 100% 29.90 in 0.2 mi Calm Calm - N/A Fog Fog
3:16 AM 62.8 °F - 62.8 °F 100% 29.90 in 0.2 mi Calm Calm - N/A Fog Fog
3:35 AM 61.7 °F - 61.7 °F 100% 29.89 in 0.5 mi Calm Calm - N/A Fog Fog
3:36 AM 61.7 °F - 61.7 °F 100% 29.89 in 0.5 mi Calm Calm - N/A Fog Fog
3:59 AM 61.2 °F - 61.2 °F 100% 29.88 in 7.0 mi Calm Calm - N/A   Scattered Clouds
4:16 AM 61.2 °F - 61.2 °F 100% 29.88 in 7.0 mi Calm Calm - N/A   Clear
4:35 AM 60.6 °F - 60.6 °F 100% 29.88 in 7.0 mi Calm Calm - N/A   Clear
4:36 AM 60.6 °F - 60.6 °F 100% 29.88 in 7.0 mi Calm Calm - N/A   Clear
4:55 AM 60.1 °F - 60.1 °F 100% 29.87 in 10.0 mi Calm Calm - N/A   Clear
5:15 AM 59.5 °F - 59.5 °F 100% 29.87 in 5.0 mi NW 3.5 mph - N/A   Scattered Clouds
5:38 AM 59.7 °F - 59.7 °F 100% 29.87 in 7.0 mi Calm Calm - N/A   Overcast
5:56 AM 60.1 °F - 60.1 °F 100% 29.87 in 7.0 mi Calm Calm - N/A   Overcast
6:15 AM 60.3 °F - 60.3 °F 100% 29.87 in 10.0 mi Calm Calm - N/A   Overcast
6:35 AM 59.9 °F - 59.9 °F 100% 29.87 in 0.5 mi NW 3.5 mph - N/A Fog Fog
6:59 AM 59.9 °F - 59.9 °F 100% 29.86 in 0.2 mi Calm Calm - N/A Fog Fog
7:17 AM 59.9 °F - 59.9 °F 100% 29.86 in 0.2 mi Calm Calm - N/A Fog Fog
7:35 AM 60.4 °F - 60.4 °F 100% 29.87 in 0.2 mi Calm Calm - N/A Fog Fog
7:55 AM 61.7 °F - 61.7 °F 100% 29.86 in 2.5 mi Calm Calm - N/A   Overcast
8:15 AM 63.7 °F - 63.7 °F 100% 29.86 in 7.0 mi Calm Calm - N/A   Overcast
8:20 AM 64.4 °F - 64.4 °F 100% 29.85 in 10.0 mi Calm Calm - N/A   Overcast
8:38 AM 68.5 °F - 68.5 °F 100% 29.85 in 10.0 mi SSE 6.9 mph - N/A   Mostly Cloudy
8:56 AM 71.8 °F - 71.8 °F 100% 29.86 in 10.0 mi South 6.9 mph - N/A   Scattered Clouds
9:15 AM 72.7 °F - 71.4 °F 96% 29.89 in 10.0 mi SSW 11.5 mph - N/A   Scattered Clouds
9:35 AM 73.4 °F - 71.4 °F 93% 29.88 in 10.0 mi SW 9.2 mph - N/A   Mostly Cloudy
9:36 AM 73.4 °F - 71.4 °F 93% 29.88 in 10.0 mi SSW 8.1 mph - N/A   Mostly Cloudy
9:59 AM 76.3 °F - 70.3 °F 82% 29.86 in 10.0 mi SW 9.2 mph - N/A   Scattered Clouds
10:17 AM 76.8 °F - 70.9 °F 82% 29.85 in 10.0 mi South 8.1 mph - N/A   Mostly Cloudy
10:35 AM 76.3 °F - 70.3 °F 82% 29.84 in 10.0 mi SSW 9.2 mph - N/A   Overcast
10:55 AM 77.5 °F - 70.5 °F 79% 29.82 in 10.0 mi South 10.4 mph - N/A   Overcast
10:56 AM 77.5 °F - 70.3 °F 78% 29.82 in 10.0 mi South 9.2 mph - N/A   Overcast
11:15 AM 78.4 °F - 70.7 °F 77% 29.82 in 10.0 mi South 11.5 mph - N/A   Overcast
11:20 AM 77.7 °F - 70.7 °F 79% 29.82 in 10.0 mi South 11.5 mph - N/A   Overcast
11:38 AM 77.0 °F - 71.6 °F 83% 29.84 in 10.0 mi South 12.7 mph - N/A   Overcast
11:56 AM 76.6 °F - 71.8 °F 85% 29.85 in 10.0 mi South 13.8 mph - N/A   Overcast
12:15 PM 78.8 °F - 71.6 °F 78% 29.84 in 10.0 mi SSW 16.1 mph 19.6 mph N/A   Overcast
12:16 PM 78.8 °F - 71.4 °F 78% 29.84 in 10.0 mi SSW 16.1 mph 19.6 mph N/A   Overcast
12:35 PM 79.3 °F - 70.7 °F 75% 29.85 in 10.0 mi SSW 15.0 mph 21.9 mph N/A   Overcast
12:59 PM 81.9 °F 85.8 °F 70.3 °F 68% 29.83 in 10.0 mi SSW 15.0 mph 23.0 mph N/A   Mostly Cloudy
1:17 PM 82.4 °F 85.8 °F 69.3 °F 64% 29.83 in 10.0 mi South 13.8 mph 17.3 mph N/A   Mostly Cloudy
1:35 PM 82.2 °F 85.8 °F 69.3 °F 65% 29.83 in 10.0 mi SSW 16.1 mph - N/A   Scattered Clouds
1:36 PM 82.2 °F 85.8 °F 69.3 °F 65% 29.83 in 10.0 mi SSW 15.0 mph - N/A   Scattered Clouds
1:55 PM 80.8 °F 83.9 °F 69.4 °F 68% 29.84 in 10.0 mi SSW 11.5 mph 19.6 mph N/A   Scattered Clouds
1:56 PM 81.0 °F 84.2 °F 69.6 °F 68% 29.84 in 10.0 mi SSW 11.5 mph 19.6 mph N/A   Scattered Clouds
2:15 PM 78.4 °F - 70.9 °F 77% 29.85 in 5.0 mi SSW 15.0 mph - 0.02 in Rain Heavy Rain
2:38 PM 73.9 °F - 72.5 °F 95% 29.82 in 10.0 mi SSW 9.2 mph - 0.03 in Rain Light Rain
2:56 PM 72.7 °F - 70.7 °F 93% 29.77 in 10.0 mi SSE 6.9 mph - 0.04 in Rain Light Rain
3:15 PM 73.4 °F - 70.9 °F 92% 29.73 in 10.0 mi SE 4.6 mph - N/A   Scattered Clouds
3:35 PM 75.0 °F - 72.7 °F 92% 29.72 in 10.0 mi South 6.9 mph - N/A   Clear
3:59 PM 76.1 °F - 70.3 °F 82% 29.75 in 10.0 mi SSW 10.4 mph - N/A   Clear
4:17 PM 75.9 °F - 68.7 °F 78% 29.74 in 10.0 mi SSW 5.8 mph - N/A   Clear
4:35 PM 77.4 °F - 69.3 °F 76% 29.74 in 10.0 mi South 6.9 mph - N/A   Clear
4:55 PM 79.3 °F - 67.8 °F 68% 29.74 in 10.0 mi South 9.2 mph - N/A   Clear
5:15 PM 77.4 °F - 68.2 °F 73% 29.76 in 10.0 mi South 5.8 mph - N/A   Clear
5:38 PM 77.5 °F - 68.0 °F 72% 29.77 in 10.0 mi South 8.1 mph 11.5 mph N/A   Clear
5:56 PM 78.3 °F - 67.5 °F 69% 29.77 in 10.0 mi South 11.5 mph - N/A   Scattered Clouds
6:15 PM 77.4 °F - 67.1 °F 71% 29.77 in 10.0 mi South 10.4 mph 16.1 mph N/A   Mostly Cloudy
6:16 PM 77.4 °F - 67.1 °F 71% 29.77 in 10.0 mi South 10.4 mph 16.1 mph N/A   Mostly Cloudy
6:35 PM 76.6 °F - 67.3 °F 73% 29.77 in 10.0 mi South 10.4 mph - N/A   Scattered Clouds
6:36 PM 76.5 °F - 67.3 °F 73% 29.77 in 10.0 mi South 10.4 mph - N/A   Scattered Clouds
6:59 PM 76.1 °F - 68.0 °F 76% 29.76 in 10.0 mi SSW 8.1 mph - N/A   Scattered Clouds
7:17 PM 75.9 °F - 68.5 °F 78% 29.75 in 10.0 mi SSW 6.9 mph - N/A   Clear
7:35 PM 76.3 °F - 68.4 °F 76% 29.74 in 10.0 mi SW 9.2 mph - N/A   Clear
7:55 PM 77.0 °F - 65.3 °F 67% 29.74 in 10.0 mi WSW 13.8 mph 17.3 mph N/A   Clear
7:56 PM 77.0 °F - 65.1 °F 67% 29.74 in 10.0 mi WSW 13.8 mph 17.3 mph N/A   Clear
8:15 PM 75.6 °F - 63.7 °F 66% 29.75 in 10.0 mi WSW 11.5 mph - N/A   Clear
8:20 PM 75.4 °F - 63.7 °F 67% 29.75 in 10.0 mi WSW 11.5 mph - N/A   Clear
8:38 PM 73.8 °F - 63.7 °F 71% 29.75 in 10.0 mi WSW 8.1 mph - N/A   Clear
8:56 PM 72.9 °F - 63.9 °F 73% 29.77 in 10.0 mi WSW 8.1 mph - N/A   Clear
9:15 PM 72.5 °F - 64.0 °F 75% 29.77 in 10.0 mi WSW 8.1 mph - N/A   Clear
9:16 PM 72.5 °F - 64.0 °F 75% 29.77 in 10.0 mi WSW 8.1 mph - N/A   Clear
9:35 PM 71.1 °F - 64.0 °F 78% 29.78 in 10.0 mi WSW 8.1 mph - N/A   Clear
9:36 PM 71.1 °F - 64.0 °F 78% 29.78 in 10.0 mi WSW 9.2 mph - N/A   Clear
9:59 PM 70.2 °F - 63.9 °F 80% 29.79 in 10.0 mi WSW 8.1 mph - N/A   Clear
10:17 PM 71.2 °F - 64.4 °F 79% 29.80 in 10.0 mi West 9.2 mph - N/A   Clear
10:35 PM 71.6 °F - 64.0 °F 77% 29.81 in 10.0 mi West 6.9 mph - N/A   Clear
10:36 PM 71.6 °F - 64.0 °F 77% 29.81 in 10.0 mi West 6.9 mph - N/A   Clear
10:55 PM 71.6 °F - 63.7 °F 76% 29.81 in 10.0 mi West 8.1 mph - N/A   Clear
10:56 PM 71.6 °F - 63.7 °F 76% 29.81 in 10.0 mi West 8.1 mph - N/A   Clear
11:15 PM 71.2 °F - 63.5 °F 76% 29.82 in 10.0 mi WSW 5.8 mph - N/A   Clear
11:38 PM 69.3 °F - 63.9 °F 83% 29.82 in 10.0 mi WSW 6.9 mph - N/A   Clear
11:55 PM 68.9 °F - 63.7 °F 83% 29.82 in 10.0 mi WSW 6.9 mph - N/A   Clear